Time,TemperatureF,DewpointF,PressureIn,WindDirection,WindDirectionDegrees,WindSpeedMPH,WindSpeedGustMPH,Humidity,HourlyPrecipIn,Conditions,Clouds,dailyrainin,SolarRadiationWatts/m^2,SoftwareType,DateUTC
2013-06-19 00:01:00,56.0,34.0,-100.00,South,174,5.0,8.0,43,0.00,,,0.00,0.000000,,2013-06-19 05:01:00,
2013-06-19 00:23:00,54.0,32.0,-100.00,South,185,4.0,7.0,43,0.00,,,0.00,0.000000,,2013-06-19 05:23:00,
2013-06-19 00:32:00,54.0,32.0,-100.00,South,185,4.0,7.0,43,0.00,,,0.00,0.000000,,2013-06-19 05:32:00,
2013-06-19 00:43:00,54.0,32.0,-100.00,South,185,4.0,7.0,43,0.00,,,0.00,0.000000,,2013-06-19 05:43:00,
2013-06-19 00:52:00,54.0,32.0,-100.00,South,185,4.0,7.0,43,0.00,,,0.00,0.000000,,2013-06-19 05:52:00,
2013-06-19 01:02:00,54.0,32.0,-100.00,South,185,4.0,7.0,43,0.00,,,0.00,0.000000,,2013-06-19 06:02:00,
2013-06-19 01:22:00,53.0,32.0,-100.00,South,180,5.0,8.0,45,-99.99,,,0.00,0.000000,,2013-06-19 06:22:00,
2013-06-19 01:34:00,53.0,32.0,-100.00,South,180,5.0,8.0,45,-99.99,,,0.00,0.000000,,2013-06-19 06:34:00,
2013-06-19 01:43:00,53.0,32.0,-100.00,South,180,5.0,8.0,45,-99.99,,,0.00,0.000000,,2013-06-19 06:43:00,
2013-06-19 02:01:00,53.0,32.0,-100.00,South,180,5.0,8.0,45,-99.99,,,0.00,0.000000,,2013-06-19 07:01:00,
2013-06-19 02:22:00,51.0,33.0,-100.00,South,186,4.0,7.0,49,0.00,,,0.00,0.000000,,2013-06-19 07:22:00,
2013-06-19 02:33:00,51.0,33.0,-100.00,South,186,4.0,7.0,49,0.00,,,0.00,0.000000,,2013-06-19 07:33:00,
2013-06-19 02:43:00,51.0,33.0,-100.00,South,186,4.0,7.0,49,0.00,,,0.00,0.000000,,2013-06-19 07:43:00,
2013-06-19 02:53:00,51.0,33.0,-100.00,South,186,4.0,7.0,49,0.00,,,0.00,0.000000,,2013-06-19 07:53:00,
2013-06-19 03:02:00,51.0,33.0,-100.00,South,186,4.0,7.0,49,0.00,,,0.00,0.000000,,2013-06-19 08:02:00,
2013-06-19 03:22:00,50.0,35.0,-100.00,SSW,208,4.0,6.0,56,0.00,,,0.00,0.000000,,2013-06-19 08:22:00,
2013-06-19 03:34:00,50.0,35.0,-100.00,SSW,208,4.0,6.0,56,0.00,,,0.00,0.000000,,2013-06-19 08:34:00,
2013-06-19 03:43:00,50.0,35.0,-100.00,SSW,208,4.0,6.0,56,0.00,,,0.00,0.000000,,2013-06-19 08:43:00,
2013-06-19 03:54:00,50.0,35.0,-100.00,SSW,208,4.0,6.0,56,0.00,,,0.00,0.000000,,2013-06-19 08:54:00,
2013-06-19 04:02:00,50.0,35.0,-100.00,SSW,208,4.0,6.0,56,0.00,,,0.00,0.000000,,2013-06-19 09:02:00,
2013-06-19 04:22:00,50.0,37.0,-100.00,SSW,203,4.0,7.0,60,0.00,,,0.00,0.000000,,2013-06-19 09:22:00,
2013-06-19 04:34:00,50.0,37.0,-100.00,SSW,203,4.0,7.0,60,0.00,,,0.00,0.000000,,2013-06-19 09:34:00,
2013-06-19 04:44:00,50.0,37.0,-100.00,SSW,203,4.0,7.0,60,0.00,,,0.00,0.000000,,2013-06-19 09:44:00,
2013-06-19 04:53:00,50.0,37.0,-100.00,SSW,203,4.0,7.0,60,0.00,,,0.00,0.000000,,2013-06-19 09:53:00,
2013-06-19 05:02:00,50.0,37.0,-100.00,SSW,203,4.0,7.0,60,0.00,,,0.00,0.000000,,2013-06-19 10:02:00,
2013-06-19 05:22:00,51.0,38.0,-100.00,SSW,203,3.0,7.0,61,0.00,,,0.00,0.000000,,2013-06-19 10:22:00,
2013-06-19 05:33:00,51.0,38.0,-100.00,SSW,203,3.0,7.0,61,0.00,,,0.00,0.000000,,2013-06-19 10:33:00,
2013-06-19 05:43:00,51.0,38.0,-100.00,SSW,203,3.0,7.0,61,0.00,,,0.00,0.000000,,2013-06-19 10:43:00,
2013-06-19 06:02:00,51.0,38.0,-100.00,SSW,203,3.0,7.0,61,0.00,,,0.00,0.000000,,2013-06-19 11:02:00,
2013-06-19 06:33:00,53.0,39.0,-100.00,SSW,202,4.0,7.0,59,0.00,,,0.00,15.000000,,2013-06-19 11:33:00,
2013-06-19 06:43:00,53.0,39.0,-100.00,SSW,202,4.0,7.0,59,0.00,,,0.00,15.000000,,2013-06-19 11:43:00,
2013-06-19 06:54:00,53.0,39.0,-100.00,SSW,202,4.0,7.0,59,0.00,,,0.00,15.000000,,2013-06-19 11:54:00,
2013-06-19 07:01:00,53.0,39.0,-100.00,SSW,202,4.0,7.0,59,0.00,,,0.00,15.000000,,2013-06-19 12:01:00,
2013-06-19 07:22:00,55.0,41.0,-100.00,SSW,206,4.0,6.0,60,0.00,,,0.00,95.000000,,2013-06-19 12:22:00,
2013-06-19 07:34:00,55.0,41.0,-100.00,SSW,206,4.0,6.0,60,0.00,,,0.00,95.000000,,2013-06-19 12:34:00,
2013-06-19 07:44:00,55.0,41.0,-100.00,SSW,206,4.0,6.0,60,0.00,,,0.00,95.000000,,2013-06-19 12:44:00,
2013-06-19 07:53:00,55.0,41.0,-100.00,SSW,206,4.0,6.0,60,0.00,,,0.00,95.000000,,2013-06-19 12:53:00,
2013-06-19 08:02:00,55.0,41.0,-100.00,SSW,206,4.0,6.0,60,0.00,,,0.00,95.000000,,2013-06-19 13:02:00,
2013-06-19 08:22:00,57.0,44.0,-100.00,SSW,193,4.0,7.0,62,0.00,,,0.00,113.000000,,2013-06-19 13:22:00,
2013-06-19 08:33:00,57.0,44.0,-100.00,SSW,193,4.0,7.0,62,0.00,,,0.00,113.000000,,2013-06-19 13:33:00,
2013-06-19 08:43:00,57.0,44.0,-100.00,SSW,193,4.0,7.0,62,0.00,,,0.00,113.000000,,2013-06-19 13:43:00,
2013-06-19 08:54:00,57.0,44.0,-100.00,SSW,193,4.0,7.0,62,0.00,,,0.00,113.000000,,2013-06-19 13:54:00,
2013-06-19 09:02:00,57.0,44.0,-100.00,SSW,193,4.0,7.0,62,0.00,,,0.00,113.000000,,2013-06-19 14:02:00,
2013-06-19 09:22:00,60.0,48.0,-100.00,SSW,199,4.0,8.0,65,0.00,,,0.00,157.000000,,2013-06-19 14:22:00,
2013-06-19 09:34:00,60.0,48.0,-100.00,SSW,199,4.0,8.0,65,0.00,,,0.00,157.000000,,2013-06-19 14:34:00,
2013-06-19 09:44:00,60.0,48.0,-100.00,SSW,199,4.0,8.0,65,0.00,,,0.00,157.000000,,2013-06-19 14:44:00,
2013-06-19 09:53:00,60.0,48.0,-100.00,SSW,199,4.0,8.0,65,0.00,,,0.00,157.000000,,2013-06-19 14:53:00,
2013-06-19 10:01:00,60.0,48.0,-100.00,SSW,199,4.0,8.0,65,0.00,,,0.00,157.000000,,2013-06-19 15:01:00,
2013-06-19 10:22:00,62.0,50.0,-100.00,SSW,202,4.0,7.0,65,0.00,,,0.00,152.000000,,2013-06-19 15:22:00,
2013-06-19 10:33:00,62.0,50.0,-100.00,SSW,202,4.0,7.0,65,0.00,,,0.00,152.000000,,2013-06-19 15:33:00,
2013-06-19 10:43:00,62.0,50.0,-100.00,SSW,202,4.0,7.0,65,0.00,,,0.00,152.000000,,2013-06-19 15:43:00,
2013-06-19 10:53:00,62.0,50.0,-100.00,SSW,202,4.0,7.0,65,0.00,,,0.00,152.000000,,2013-06-19 15:53:00,
2013-06-19 11:01:00,62.0,50.0,-100.00,SSW,202,4.0,7.0,65,0.00,,,0.00,152.000000,,2013-06-19 16:01:00,
2013-06-19 11:34:00,71.0,55.0,-100.00,SSW,201,6.0,10.0,58,0.00,,,0.00,577.000000,,2013-06-19 16:34:00,
2013-06-19 11:43:00,71.0,55.0,-100.00,SSW,201,6.0,10.0,58,0.00,,,0.00,577.000000,,2013-06-19 16:43:00,
2013-06-19 11:53:00,71.0,55.0,-100.00,SSW,201,6.0,10.0,58,0.00,,,0.00,577.000000,,2013-06-19 16:53:00,
2013-06-19 12:02:00,71.0,55.0,-100.00,SSW,201,6.0,10.0,58,0.00,,,0.00,577.000000,,2013-06-19 17:02:00,
2013-06-19 12:22:00,71.0,54.0,-100.00,WSW,242,4.0,11.0,56,0.00,,,0.00,513.000000,,2013-06-19 17:22:00,
2013-06-19 12:34:00,71.0,54.0,-100.00,WSW,242,4.0,11.0,56,0.00,,,0.00,513.000000,,2013-06-19 17:34:00,
2013-06-19 12:43:00,71.0,54.0,-100.00,WSW,242,4.0,11.0,56,0.00,,,0.00,513.000000,,2013-06-19 17:43:00,
2013-06-19 12:53:00,71.0,54.0,-100.00,WSW,242,4.0,11.0,56,0.00,,,0.00,513.000000,,2013-06-19 17:53:00,
2013-06-19 13:01:00,71.0,54.0,-100.00,WSW,242,4.0,11.0,56,0.00,,,0.00,513.000000,,2013-06-19 18:01:00,
2013-06-19 13:24:00,72.0,55.0,-100.00,SSW,213,5.0,9.0,56,0.00,,,0.00,382.000000,,2013-06-19 18:24:00,
2013-06-19 13:33:00,72.0,55.0,-100.00,SSW,213,5.0,9.0,56,0.00,,,0.00,382.000000,,2013-06-19 18:33:00,
2013-06-19 13:44:00,72.0,55.0,-100.00,SSW,213,5.0,9.0,56,0.00,,,0.00,382.000000,,2013-06-19 18:44:00,
2013-06-19 13:53:00,72.0,55.0,-100.00,SSW,213,5.0,9.0,56,0.00,,,0.00,382.000000,,2013-06-19 18:53:00,
2013-06-19 14:01:00,72.0,55.0,-100.00,SSW,213,5.0,9.0,56,0.00,,,0.00,382.000000,,2013-06-19 19:01:00,
2013-06-19 14:22:00,76.0,57.0,-100.00,WSW,251,4.0,9.0,52,0.00,,,0.00,552.000000,,2013-06-19 19:22:00,
2013-06-19 14:32:00,76.0,57.0,-100.00,WSW,251,4.0,9.0,52,0.00,,,0.00,552.000000,,2013-06-19 19:32:00,
2013-06-19 14:43:00,76.0,57.0,-100.00,WSW,251,4.0,9.0,52,0.00,,,0.00,552.000000,,2013-06-19 19:43:00,
2013-06-19 14:53:00,76.0,57.0,-100.00,WSW,251,4.0,9.0,52,0.00,,,0.00,552.000000,,2013-06-19 19:53:00,
2013-06-19 15:02:00,76.0,57.0,-100.00,WSW,251,4.0,9.0,52,0.00,,,0.00,552.000000,,2013-06-19 20:02:00,
2013-06-19 15:22:00,79.0,55.0,-100.00,SW,219,5.0,10.0,43,0.00,,,0.00,807.000000,,2013-06-19 20:22:00,
2013-06-19 15:33:00,79.0,55.0,-100.00,SW,219,5.0,10.0,43,0.00,,,0.00,807.000000,,2013-06-19 20:33:00,
2013-06-19 15:43:00,79.0,55.0,-100.00,SW,219,5.0,10.0,43,0.00,,,0.00,807.000000,,2013-06-19 20:43:00,
2013-06-19 15:52:00,79.0,55.0,-100.00,SW,219,5.0,10.0,43,0.00,,,0.00,807.000000,,2013-06-19 20:52:00,
2013-06-19 16:02:00,79.0,55.0,-100.00,SW,219,5.0,10.0,43,0.00,,,0.00,807.000000,,2013-06-19 21:02:00,
2013-06-19 16:22:00,75.0,51.0,-100.00,SW,224,6.0,11.0,43,0.00,,,0.00,456.000000,,2013-06-19 21:22:00,
2013-06-19 16:33:00,75.0,51.0,-100.00,SW,224,6.0,11.0,43,0.00,,,0.00,456.000000,,2013-06-19 21:33:00,
2013-06-19 16:44:00,75.0,51.0,-100.00,SW,224,6.0,11.0,43,0.00,,,0.00,456.000000,,2013-06-19 21:44:00,
2013-06-19 16:52:00,75.0,51.0,-100.00,SW,224,6.0,11.0,43,0.00,,,0.00,456.000000,,2013-06-19 21:52:00,
2013-06-19 17:01:00,75.0,51.0,-100.00,SW,224,6.0,11.0,43,0.00,,,0.00,456.000000,,2013-06-19 22:01:00,
2013-06-19 17:22:00,76.0,49.0,-100.00,WSW,237,4.0,10.0,39,0.00,,,0.00,469.000000,,2013-06-19 22:22:00,
2013-06-19 17:34:00,76.0,49.0,-100.00,WSW,237,4.0,10.0,39,0.00,,,0.00,469.000000,,2013-06-19 22:34:00,
2013-06-19 17:43:00,76.0,49.0,-100.00,WSW,237,4.0,10.0,39,0.00,,,0.00,469.000000,,2013-06-19 22:43:00,
2013-06-19 17:53:00,76.0,49.0,-100.00,WSW,237,4.0,10.0,39,0.00,,,0.00,469.000000,,2013-06-19 22:53:00,
2013-06-19 18:02:00,76.0,49.0,-100.00,WSW,237,4.0,10.0,39,0.00,,,0.00,469.000000,,2013-06-19 23:02:00,
2013-06-19 18:23:00,74.0,54.0,-100.00,NNE,26,1.0,6.0,50,0.00,,,0.00,144.000000,,2013-06-19 23:23:00,
2013-06-19 18:34:00,74.0,54.0,-100.00,NNE,26,1.0,6.0,50,0.00,,,0.00,144.000000,,2013-06-19 23:34:00,
2013-06-19 18:43:00,74.0,54.0,-100.00,NNE,26,1.0,6.0,50,0.00,,,0.00,144.000000,,2013-06-19 23:43:00,
2013-06-19 18:52:00,74.0,54.0,-100.00,NNE,26,1.0,6.0,50,0.00,,,0.00,144.000000,,2013-06-19 23:52:00,
2013-06-19 19:01:00,74.0,54.0,-100.00,NNE,26,1.0,6.0,50,0.00,,,0.00,144.000000,,2013-06-20 00:01:00,
2013-06-19 19:34:00,63.0,61.0,-100.00,NE,48,4.0,16.0,93,0.19,,,0.19,39.000000,,2013-06-20 00:34:00,
2013-06-19 19:44:00,63.0,61.0,-100.00,NE,48,4.0,16.0,93,0.19,,,0.19,39.000000,,2013-06-20 00:44:00,
2013-06-19 19:52:00,63.0,61.0,-100.00,NE,48,4.0,16.0,93,0.19,,,0.19,39.000000,,2013-06-20 00:52:00,
2013-06-19 20:02:00,63.0,61.0,-100.00,NE,48,4.0,16.0,93,0.19,,,0.19,39.000000,,2013-06-20 01:02:00,
2013-06-19 20:22:00,62.0,61.0,-100.00,East,91,2.0,6.0,95,0.00,,,0.19,31.000000,,2013-06-20 01:22:00,
2013-06-19 20:34:00,62.0,61.0,-100.00,East,91,2.0,6.0,95,0.00,,,0.19,31.000000,,2013-06-20 01:34:00,
2013-06-19 20:44:00,62.0,61.0,-100.00,East,91,2.0,6.0,95,0.00,,,0.19,31.000000,,2013-06-20 01:44:00,
2013-06-19 20:52:00,62.0,61.0,-100.00,East,91,2.0,6.0,95,0.00,,,0.19,31.000000,,2013-06-20 01:52:00,
2013-06-19 21:02:00,62.0,61.0,-100.00,East,91,2.0,6.0,95,0.00,,,0.19,31.000000,,2013-06-20 02:02:00,
2013-06-19 21:24:00,62.0,61.0,-100.00,NNW,347,3.0,5.0,96,0.01,,,0.20,10.000000,,2013-06-20 02:24:00,
2013-06-19 21:34:00,62.0,61.0,-100.00,NNW,347,3.0,5.0,96,0.01,,,0.20,10.000000,,2013-06-20 02:34:00,
2013-06-19 21:43:00,62.0,61.0,-100.00,NNW,347,3.0,5.0,96,0.01,,,0.20,10.000000,,2013-06-20 02:43:00,
2013-06-19 21:52:00,62.0,61.0,-100.00,NNW,347,3.0,5.0,96,0.01,,,0.20,10.000000,,2013-06-20 02:52:00,
2013-06-19 22:02:00,62.0,61.0,-100.00,NNW,347,3.0,5.0,96,0.01,,,0.20,10.000000,,2013-06-20 03:02:00,
2013-06-19 22:22:00,62.0,61.0,-100.00,NNE,14,3.0,5.0,96,0.01,,,0.21,0.000000,,2013-06-20 03:22:00,
2013-06-19 22:33:00,62.0,61.0,-100.00,NNE,14,3.0,5.0,96,0.01,,,0.21,0.000000,,2013-06-20 03:33:00,
2013-06-19 22:43:00,62.0,61.0,-100.00,NNE,14,3.0,5.0,96,0.01,,,0.21,0.000000,,2013-06-20 03:43:00,
2013-06-19 22:54:00,62.0,61.0,-100.00,NNE,14,3.0,5.0,96,0.01,,,0.21,0.000000,,2013-06-20 03:54:00,
2013-06-19 23:02:00,62.0,61.0,-100.00,NNE,14,3.0,5.0,96,0.01,,,0.21,0.000000,,2013-06-20 04:02:00,
2013-06-19 23:23:00,61.0,59.0,-100.00,East,79,4.0,6.0,94,0.02,,,0.23,0.000000,,2013-06-20 04:23:00,
2013-06-19 23:34:00,61.0,59.0,-100.00,East,79,4.0,6.0,94,0.02,,,0.23,0.000000,,2013-06-20 04:34:00,
2013-06-19 23:44:00,61.0,59.0,-100.00,East,79,4.0,6.0,94,0.02,,,0.23,0.000000,,2013-06-20 04:44:00,
2013-06-19 23:54:00,61.0,59.0,-100.00,East,79,4.0,6.0,94,0.02,,,0.23,0.000000,,2013-06-20 04:54:00,